Flag for U.S.A. Weather past 2 weeks in Wichita Falls, Texas, U.S.A.

Now
25 °F

Light snow. Ice fog.


Feels Like: 10 °F
Forecast: 20 / 35 °F
Wind: 22 mph from North

Location: Wichita Falls - Sheppard Air Force Base

Current Time: Mar 4, 2015 at 7:21:44 PM

Latest Report: Mar 4, 2015 at 6:52 PM


Visibility: 3 mi

Pressure: 30.27 "Hg

Humidity: 88%

Dew point: 22 °F

Location of Wichita FallsLocation

Historic Weather in Wichita Falls — Graph

°F

Wichita Falls temperature yesterday

Maximum temperature yesterday: 59 °F (at 4:52 PM)
Minimum temperature yesterday: 37 °F (at 12:52 AM)
Average temperature yesterday: 46 °F

Past Weeks' High & Low Weather Summary

 TemperatureHumidityPressure
High74 °F (Feb 20, 4:52 PM)100% (Mar 4, 1:52 AM)30.66 "Hg (Mar 4, 1:52 AM)
Low19 °F (Feb 27, 9:58 AM)28% (Feb 25, 4:52 PM)29.56 "Hg (Feb 20, 11:52 PM)
Average36 °F74%30.20 "Hg
* Reported Feb 17 5:52 PM — Mar 4 5:52 PM, Wichita Falls, Weather by CustomWeather, © 2015

Note: Actual official high and low records may vary slightly from our data, if they occured in-between our weather recording intervals... More about our weather records

Advertising

Wichita Falls weather history for previous 24 hours

 ConditionsComfort  
Time TempWeatherWind HumidityBarometerVisibility
5:52 PM
Wed, Mar 4
26 °FLight snow. Ice fog.16 mph88%30.28 "Hg2 mi
5:04 PM26 °FSnow. Ice fog.24 mph88%30.22 "Hg0 mi
4:52 PM27 °FHeavy snow. Ice fog.22 mph85%30.24 "Hg0 mi
3:59 PM27 °FLight snow. Ice fog.32 mph85%30.18 "Hg2 mi
2:52 PM28 °FLight snow. Ice fog.21 mph89%30.14 "Hg3 mi
1:52 PM29 °FLight snow. Ice fog.28 mph85%30.11 "Hg3 mi
12:52 PM29 °FLight snow. Ice fog.26 mph85%30.14 "Hg4 mi
12:03 PM29 °FSleet. Ice fog.24 mph89%30.12 "Hg2 mi
12:00 PM29 °FFreezing rain. Ice fog.30 mph89%30.12 "Hg2 mi
10:52 AM31 °FLight freezing rain. Overcast.24 mph79%30.15 "Hg5 mi
9:52 AM33 °FFog.26 mph85%30.08 "Hg6 mi
8:59 AM35 °FOvercast.25 mph85%30.04 "Hg7 mi
7:52 AM36 °FLight rain. Fog.23 mph85%30.02 "Hg5 mi
6:52 AM37 °FLight rain. Fog.21 mph86%29.95 "Hg6 mi
5:52 AM38 °FLight rain. Overcast.21 mph90%29.95 "Hg7 mi
4:52 AM42 °FLight rain. Fog.14 mph89%29.91 "Hg5 mi
3:52 AM43 °FLight rain. Fog.15 mph86%29.89 "Hg5 mi
2:52 AM46 °FFog.24 mph96%29.88 "Hg4 mi
1:52 AM48 °FFog.5 mph100%29.86 "Hg0 mi
12:52 AM49 °FFog.6 mph97%29.85 "Hg0 mi
11:52 PM
Tue, Mar 3
49 °FFog.7 mph97%29.85 "Hg3 mi
10:52 PM48 °FFog.7 mph93%29.85 "Hg5 mi
9:59 PM48 °FClear.8 mph93%29.87 "Hg7 mi
8:52 PM50 °FPassing clouds.7 mph89%29.86 "Hg9 mi
7:52 PM53 °FPartly cloudy.6 mph80%29.84 "Hg10 mi
Weather by CustomWeather, © 2015

See weather overviewHow to use our weather pages